DECAYED

STARLINK-1723, 46333 (Decayed)

Orbit data source: Space-Track

STARLINK-1723, 46333 was a payload satellite owned by SpaceX/Seattle (US) in LEO that was launched on Thu, 03 Sep 2020 UTC via an FALCON 9 launch vehicle from the Air Force Eastern Test Range (AFETR). Payload-class satellites include a variety of spacecraft equipped with specific instruments for various scientific and technological missions. These include communications satellites like Starlink; space stations such as the ISS; scientific satellites like the Hubble; Earth observation satellites from companies like Planet Labs, Umbra, and HawkEye 360; GPS; miniature CubeSats for education and research; and military/defense satellites.

Not visible in the next 10 days
Identifier
46333, 2020-062J
Orbit
Decayed
Country
Flag of USUS
Related business
Manufacturer
SpaceX/Seattle
Mission
Decayed Commercial Communications
Bus & Motor
STARLINK, Unknown motor
Mass
260 kg wet, ~248 kg dry
Launch date (UTC)
2020-09-03 (6 years ago)
Launch vehicle
FALCON 9
Launch site
Air Force Eastern Test Range (AFETR)
Object type
Payload
Rocket body
Debris
Shape & HBR
Box + 1 Pan, 10.1 m
Radar Cross Section
13.562 m², Large (>1 m²)

Expand to show TLE details & history
Last TLE update: 2 months ago

TLE from 2 months ago
0 STARLINK-1723
1 46333U 20062J   26065.04306947  .13667714  12453-4  35780-3 0  9991
2 46333  53.0308 340.3229 0005836 232.1279 127.9243 16.45467237304494
Epoch: 2026-03-06T01:02Z
TLE epoch observation values (Epoch: 2026-03-06T01:02:01.202Z)
Latitude
0.00005°
Longitude
161.03319°
Altitude
154.572 km
Speed
7.813 km/s
True Right ascension
22h 41m 17s
True Declination
0° 00' 00"
Sunlit
Object was in daylight at epoch
Visualization orbit readout
Latitude
Unknown
Longitude
Unknown
Altitude
Unknown
Speed
Unknown
Apparent Right ascension
Unknown
Apparent Declination
Unknown
Sunlit
N/A
Visualization observer readout
Local Sidereal Time
18:06:48
Azimuth
Unknown
Elevation
Unknown
Doppler factor
Unknown
Orbital elements
Apogee altitude
155.401 km
Perigee altitude
147.779 km
Semi-major axis
6,529.727 km
Eccentricity
0.00058
Inclination
53.0308°
RAAN
340.3229°
Arg. of periapsis
232.1279°
True anomaly
127.97703°
Mean anomaly
127.9243°
Eccentric anomaly
127.95067°
Mean motion
4.1134 °/min
Orbital period
87.52 mins
BSTAR
0.0003578
Loading maneuver chart data...
Computing Atmospheric mass density...

Documentation

Showing up to 5 results
|